[[{"header":{"parameterUnit":"m.s-1","parameterCategory":1,"la1":30.2991,"la2":30.254,"lo1":-89.0895,"lo2":-89.0444,"dy":0.0017,"dx":0.0017,"nx":28,"ny":28,"refTime":"2024-05-13T03:00:00:Z","depth":0,"parameterNumber":2,"parameterNumberName":"U-component_of_WINDS"},"data":[0,0,0,0,0,0,0,0,0,0,0,0,0,0,0,0,0,0,0,0,0,0,0,0,0,0,0,0,0,0,0,0,0,0,0,0,0,0,0,0,0,0,0,0,0,0,0,0,0,0,0,0,0,0,0,0,0,0,-5.1893,-5.1892,0,-5.1794,-5.1793,-5.1792,-5.1538,-5.1532,-5.1527,-5.1522,-5.1427,-5.1429,-5.1432,0,0,0,0,0,0,0,0,0,0,0,0,0,-5.1866,-5.1868,-5.1893,-5.1892,-5.1891,-5.1794,-5.1793,-5.1792,-5.1539,-5.1532,-5.1525,-5.1519,-5.1426,-5.1429,-5.1432,0,0,0,0,0,0,0,0,0,0,0,0,0,-5.1834,-5.1869,-5.1893,-5.1753,-5.1739,-5.1795,-5.1793,-5.1791,-5.154,-5.1532,-5.1524,-5.1516,-5.1425,-5.1429,-5.1432,-5.1618,0,0,-5.1444,-5.1446,0,0,0,0,0,0,0,0,-5.1836,-5.1835,-5.1775,-5.1762,-5.1747,-5.167,-5.1748,-5.1734,-5.1542,-5.1616,-5.1521,-5.1512,-5.1515,-5.151,-5.151,-5.1614,-5.161,-5.1444,-5.1447,-5.1448,-5.1449,0,0,0,0,0,0,0,-5.1839,-5.1838,-5.1854,-5.1774,-5.1757,-5.1695,-5.1682,-5.1744,-5.1612,-5.1609,-5.159,-5.1581,-5.1506,-5.1507,-5.1506,-5.1608,-5.1444,-5.1448,-5.145,-5.1451,-5.1855,-5.1863,0,0,0,0,0,0,-5.186,-5.1842,-5.1857,-5.1851,-5.1772,-5.1703,-5.1687,-5.1703,-5.1611,-5.1589,-5.1588,-5.157,-5.1504,-5.1502,-5.1502,-5.171,-5.1448,-5.1452,-5.1454,-5.1847,-5.1857,-5.1866,0,0,0,0,0,0,-5.1861,-5.1864,-5.1861,-5.1841,-5.1836,-5.1711,-5.1731,-5.1705,-5.1706,-5.1595,-5.1571,-5.1614,-5.1498,-5.1496,-5.159,-5.1704,-5.1453,-5.1457,-5.1837,-5.185,-5.1862,-5.2132,0,0,0,0,0,0,-5.1861,-5.1866,-5.1935,-5.1844,-5.1838,-5.1952,-5.1738,-5.1709,-5.1713,-5.1688,-5.1613,-5.1593,-5.1491,-5.1585,-5.1594,-5.1704,-5.146,-5.1826,-5.1843,-5.1858,-5.2113,-5.2153,-5.2187,0,0,0,0,0,-5.1861,-5.2018,-5.194,-5.1943,-5.1922,-5.1958,-5.1955,-5.1833,-5.1723,-5.1791,-5.1719,-5.1595,-5.169,-5.1597,-5.1604,-5.1718,-5.1818,-5.1838,-5.1856,-5.2096,-5.2145,-5.2186,0,0,0,0,0,0,-5.2129,-5.2004,-5.1916,-5.2048,-5.2015,-5.1915,-5.1999,-5.189,-5.189,-5.1867,-5.1717,-5.1703,-5.1816,-5.1776,-5.1675,-5.1891,-5.1733,-5.1755,-5.1913,-5.1959,-5.1995,-5.2003,-5.1463,0,0,0,0,0,-5.2203,-5.2241,-5.213,-5.2257,-5.2245,-5.2125,-5.2137,-5.2045,-5.2007,-5.1992,-5.1927,-5.1896,-5.1917,-5.1936,-5.195,-5.2105,-5.2084,-5.2186,-5.2223,-5.2254,-5.2275,-5.235,-5.2394,-5.1929,-5.1929,-5.1928,0,0,-5.2357,-5.2293,-5.2327,-5.2309,-5.2273,-5.2317,-5.2116,-5.2172,-5.2203,-5.2001,-5.2084,-5.2036,-5.199,-5.2115,-5.2166,-5.2085,-5.2398,-5.2279,-5.2304,-5.2308,-5.2375,-5.2419,-5.2458,-5.1942,-5.1939,-5.1937,0,0,-5.266,-5.2616,-5.2715,-5.2682,-5.2628,-5.2546,-5.2571,-5.2486,-5.2445,-5.2525,-5.2374,-5.2409,-5.2451,-5.2423,-5.2416,-5.2703,-5.2588,-5.2712,-5.2907,-5.2982,-5.3019,-5.305,-5.3152,-5.319,-5.2732,-5.2733,-5.2734,0,-5.2859,-5.2918,-5.2781,-5.2845,-5.2841,-5.2656,-5.2755,-5.273,-5.2687,-5.2688,-5.2596,-5.2641,-5.2598,-5.2712,-5.2782,-5.2782,-5.2804,-5.2721,-5.3024,-5.3055,-5.3082,-5.3177,-5.3216,-5.2748,-5.2747,-5.2745,-5.2744,0,-5.3164,-5.3207,-5.3293,-5.3251,-5.3256,-5.3339,-5.3214,-5.3236,-5.3143,-5.3072,-5.3154,-5.3095,-5.3092,-5.3112,-5.3024,-5.3213,-5.3163,-5.3051,-5.289,-5.3144,-5.3231,-5.3266,-5.277,-5.2765,-5.276,-5.2757,0,0,-5.3637,-5.3513,-5.3547,-5.3524,-5.3449,-5.3481,-5.3553,-5.3547,-5.3568,-5.3543,-5.36,-5.3637,-5.353,-5.3521,-5.3427,-5.3494,-5.3722,-5.3371,-5.3368,-5.3438,-5.3924,-5.401,-5.4054,-5.3644,-5.3651,-5.3656,-5.3927,0,-5.3921,-5.4036,-5.3913,-5.4054,-5.409,-5.3913,-5.3976,-5.3937,-5.3871,-5.3893,-5.382,-5.3848,-5.3706,-5.3699,-5.3756,-5.3683,-5.3818,-5.3661,-5.3696,-5.3699,-5.3713,-5.4099,-5.4191,-5.4451,-5.3961,-5.3966,-5.397,0,-5.4269,-5.4255,-5.44,-5.4311,-5.4322,-5.4381,-5.4364,-5.4387,-5.4338,-5.4285,-5.4273,-5.4158,-5.4222,-5.4064,-5.415,-5.4046,-5.4052,-5.4018,-5.4025,-5.4024,-5.3851,-5.4109,-5.453,-5.457,-5.4022,-5.4018,-5.4015,0,-5.4598,-5.4616,-5.4703,-5.4689,-5.4589,-5.4634,-5.4595,-5.4538,-5.4541,-5.4526,-5.4526,-5.4521,-5.4518,-5.4516,-5.4402,-5.4298,-5.4502,-5.4335,-5.446,-5.4463,-5.4512,-5.4511,-5.4941,-5.4517,-5.4516,-5.4516,-5.4515,0,-5.4929,-5.5024,-5.4849,-5.4903,-5.5003,-5.486,-5.4963,-5.4906,-5.4856,-5.4896,-5.4743,-5.4783,-5.463,-5.4654,-5.4565,-5.4649,-5.4649,-5.4608,-5.4583,-5.4622,-5.4627,-5.4625,-5.4604,-5.4526,-5.4523,-5.4521,-5.452,0,-5.5314,-5.5201,-5.5284,-5.5181,-5.5157,-5.5235,-5.5147,-5.5192,-5.5114,-5.5166,-5.517,-5.5048,-5.5068,-5.4953,-5.4954,-5.4893,-5.502,-5.4965,-5.5037,-5.502,-5.515,-5.514,-5.5594,-5.5646,-5.519,-5.5195,-5.5198,0,-5.5533,-5.5601,-5.5503,-5.5517,-5.5485,-5.5511,-5.5511,-5.5372,-5.5379,-5.5326,-5.5379,-5.5385,-5.5383,-5.5423,-5.5335,-5.5334,-5.5277,-5.5436,-5.5276,-5.5311,-5.5278,-5.5276,-5.5281,-5.5471,-5.5476,-5.5481,-5.5484,0,-5.5933,-5.5872,-5.5879,-5.5865,-5.587,-5.5853,-5.5826,-5.5847,-5.5695,-5.5711,-5.5728,-5.5726,-5.5723,-5.5732,-5.5712,-5.5671,-5.5554,-5.5535,-5.5563,-5.5604,-5.5642,-5.5622,-5.5128,-5.5526,-5.5522,-5.5519,-5.5516,-5.5515,-5.6241,-5.6292,-5.623,-5.6241,-5.6205,-5.6182,-5.6219,-5.6143,-5.6154,-5.6139,-5.6056,-5.6088,-5.6034,-5.5994,-5.5964,-5.5987,-5.5911,-5.5953,-5.5963,-5.5976,-5.5999,-5.5638,-5.5983,-5.5981,-5.598,-5.5979,-5.5978,0,-5.6633,-5.6582,-5.6594,-5.6559,-5.6567,-5.6451,-5.6414,-5.643,-5.6459,-5.6417,-5.6416,-5.6435,-5.644,-5.6351,-5.6345,-5.6381,-5.6326,-5.6384,-5.638,-5.6372,-5.6068,-5.6043,-5.6428,-5.6428,-5.6428,-5.6427,-5.6427,-5.6427,-5.6837,-5.6916,-5.6848,-5.6907,-5.6855,-5.6883,-5.6872,-5.685,-5.6815,-5.6841,-5.6844,-5.6784,-5.6723,-5.671,-5.671,-5.6683,-5.6688,-5.6765,-5.6721,-5.6438,-5.6394,-5.6353,-5.6329,-5.6767,-5.6768,-5.7023,-5.7025,-5.7027]},{"header":{"parameterUnit":"m.s-1","parameterCategory":1,"la1":30.2991,"la2":30.254,"lo1":-89.0895,"lo2":-89.0444,"dy":0.0017,"dx":0.0017,"nx":28,"ny":28,"refTime":"2024-05-13T03:00:00:Z","depth":0,"parameterNumber":3,"parameterNumberName":"V-component_of_WINDS"},"data":[0,0,0,0,0,0,0,0,0,0,0,0,0,0,0,0,0,0,0,0,0,0,0,0,0,0,0,0,0,0,0,0,0,0,0,0,0,0,0,0,0,0,0,0,0,0,0,0,0,0,0,0,0,0,0,0,0,0,2.678,2.6777,0,2.6486,2.6483,2.6479,2.6479,2.6483,2.6487,2.6491,2.6156,2.6144,2.6132,0,0,0,0,0,0,0,0,0,0,0,0,0,2.7308,2.7298,2.678,2.6776,2.6773,2.6487,2.6483,2.6478,2.6479,2.6483,2.6488,2.6493,2.616,2.6146,2.6131,0,0,0,0,0,0,0,0,0,0,0,0,0,2.7052,2.7295,2.6781,2.6739,2.6733,2.6487,2.6482,2.6477,2.6478,2.6484,2.6489,2.6495,2.6165,2.6147,2.6128,2.5895,0,0,2.6071,2.6063,0,0,0,0,0,0,0,0,2.7067,2.7032,2.6749,2.6742,2.6734,2.6526,2.6546,2.6281,2.6476,2.6573,2.6491,2.6498,2.6272,2.6245,2.6176,2.5879,2.5865,2.6069,2.6058,2.605,2.6044,0,0,0,0,0,0,0,2.7084,2.7045,2.6663,2.6745,2.6735,2.6724,2.6694,2.6496,2.6392,2.6565,2.6565,2.6532,2.6269,2.6194,2.6168,2.586,2.607,2.6053,2.6041,2.6034,2.5345,2.5338,0,0,0,0,0,0,2.7115,2.706,2.6672,2.6654,2.6919,2.671,2.6677,2.6586,2.6395,2.6372,2.6527,2.6533,2.6223,2.619,2.6156,2.5862,2.605,2.6032,2.6021,2.5352,2.5343,2.5336,0,0,0,0,0,0,2.7127,2.7081,2.6684,2.6857,2.6806,2.6695,2.6593,2.6577,2.6503,2.6367,2.6345,2.6472,2.6227,2.6183,2.596,2.5851,2.6024,2.6007,2.536,2.5349,2.534,2.5277,0,0,0,0,0,0,2.7142,2.7085,2.7003,2.6856,2.6797,2.6503,2.6587,2.6567,2.6474,2.6479,2.6309,2.6285,2.6228,2.5988,2.5941,2.5828,2.5992,2.5369,2.5355,2.5343,2.5288,2.5266,2.5247,0,0,0,0,0,2.7161,2.6992,2.6999,2.6952,2.6694,2.6497,2.6462,2.6409,2.6466,2.6376,2.6288,2.6291,2.5873,2.5965,2.5912,2.5792,2.5376,2.5359,2.5344,2.5298,2.5271,2.5248,0,0,0,0,0,0,2.7118,2.6972,2.6978,2.6759,2.6642,2.6498,2.6384,2.6383,2.6238,2.6247,2.6177,2.6138,2.5914,2.5831,2.5937,2.5551,2.5629,2.5602,2.5612,2.5585,2.5565,2.5584,2.5976,0,0,0,0,0,2.7087,2.695,2.6825,2.6642,2.6584,2.6495,2.6406,2.6377,2.6247,2.6194,2.609,2.5954,2.5791,2.5685,2.5529,2.528,2.5234,2.5169,2.5149,2.5133,2.5106,2.4957,2.4923,2.5284,2.5284,2.5284,0,0,2.7012,2.6916,2.6832,2.6631,2.6537,2.6384,2.6452,2.629,2.6172,2.6166,2.595,2.5868,2.5711,2.5473,2.5362,2.5396,2.4998,2.5113,2.5101,2.5082,2.4937,2.4903,2.4873,2.5273,2.5275,2.5277,0,0,2.68,2.6719,2.6555,2.646,2.632,2.6262,2.6222,2.6078,2.6026,2.5812,2.5801,2.5655,2.538,2.5266,2.5172,2.4916,2.4907,2.4866,2.4753,2.4609,2.458,2.4554,2.4451,2.4416,2.4843,2.4842,2.4842,0,2.6723,2.6505,2.6467,2.6305,2.6211,2.6211,2.6036,2.5943,2.5754,2.5684,2.573,2.5381,2.5276,2.5005,2.4943,2.4871,2.4812,2.4881,2.459,2.4563,2.4538,2.4439,2.4401,2.4838,2.4838,2.4839,2.4839,0,2.6412,2.626,2.6143,2.5971,2.5865,2.5697,2.5622,2.5518,2.5497,2.543,2.5203,2.5079,2.4894,2.4829,2.4804,2.4551,2.4576,2.4607,2.4682,2.45,2.4404,2.4367,2.4831,2.4832,2.4834,2.4835,0,0,2.6158,2.5972,2.5927,2.5846,2.5691,2.5566,2.5394,2.5224,2.513,2.4999,2.4843,2.4611,2.4637,2.4531,2.4492,2.4367,2.4158,2.4411,2.4405,2.4358,2.3858,2.3828,2.3786,2.4157,2.415,2.4144,2.3867,0,2.5922,2.5628,2.5588,2.5321,2.5173,2.517,2.5018,2.4899,2.4832,2.4687,2.4607,2.444,2.4494,2.4428,2.4305,2.421,2.4054,2.4231,2.3995,2.3988,2.4026,2.3738,2.3707,2.3452,2.3831,2.3825,2.382,0,2.5606,2.5476,2.5198,2.5059,2.4995,2.4861,2.4696,2.4564,2.4424,2.4383,2.4265,2.4241,2.4048,2.4141,2.3866,2.3987,2.3888,2.3827,2.3815,2.3781,2.3886,2.3685,2.3371,2.3328,2.3763,2.3768,2.3772,0,2.5436,2.5191,2.4991,2.4923,2.4759,2.4662,2.4587,2.4456,2.4353,2.4207,2.4137,2.3967,2.387,2.3733,2.3658,2.3735,2.3384,2.3473,2.3331,2.3332,2.3248,2.3253,2.2902,2.3205,2.3205,2.3206,2.3207,0,2.5169,2.4996,2.4913,2.4788,2.459,2.4542,2.4343,2.4269,2.4152,2.4002,2.3989,2.3846,2.3763,2.3605,2.3545,2.3319,2.3278,2.3228,2.3211,2.3223,2.3227,2.3149,2.316,2.3196,2.3198,2.32,2.3202,0,2.4942,2.4882,2.4661,2.4527,2.4488,2.4347,2.4224,2.4096,2.4032,2.3843,2.3795,2.3688,2.3501,2.3417,2.3183,2.3142,2.2881,2.2883,2.293,2.2922,2.278,2.279,2.2357,2.2292,2.265,2.2647,2.2644,0,2.4771,2.4639,2.4492,2.4397,2.4322,2.4169,2.4066,2.4012,2.3903,2.3734,2.3622,2.3439,2.3287,2.2985,2.2877,2.2696,2.2685,2.2547,2.2656,2.2669,2.2668,2.2672,2.2652,2.2522,2.2519,2.2516,2.2514,0,2.447,2.4447,2.4307,2.4153,2.4034,2.3908,2.3783,2.3703,2.3627,2.3503,2.3318,2.3202,2.2967,2.2777,2.259,2.2497,2.2484,2.2482,2.2437,2.244,2.2469,2.2439,2.2863,2.2489,2.2491,2.2493,2.2494,2.2495,2.4257,2.4136,2.4014,2.3855,2.3758,2.3642,2.3514,2.3437,2.3285,2.3096,2.3071,2.2869,2.2724,2.2472,2.2374,2.2205,2.2236,2.2175,2.2156,2.2139,2.2124,2.2508,2.2171,2.2172,2.2173,2.2173,2.2173,0,2.3945,2.3868,2.3723,2.3554,2.3425,2.3444,2.3306,2.3192,2.3019,2.2892,2.2746,2.2526,2.2343,2.2223,2.2034,2.1921,2.191,2.1871,2.1872,2.1848,2.2113,2.2166,2.1883,2.1883,2.1883,2.1883,2.1883,2.1883,2.3767,2.3561,2.3523,2.3264,2.3184,2.2995,2.2913,2.2801,2.2699,2.2458,2.231,2.2239,2.2108,2.191,2.1737,2.1705,2.1629,2.1588,2.1554,2.1801,2.1831,2.1859,2.1908,2.1575,2.1575,2.1302,2.1299,2.1297]}]]